• Processing (Info)

  • MPEC 2001-A11 : 2000 YN29

    The following Minor Planet Electronic Circular may be linked-to from your own Web pages, but must not otherwise be redistributed electronically.

    A form allowing access to any MPEC is at the bottom of this page.


    Read MPEC 2001-A10 Read MPEC 2001-A12


    M.P.E.C. 2001-A11                                Issued 2001 Jan. 1, 19:36 UT
    
         The Minor Planet Electronic Circulars contain information on unusual
             minor planets and routine data on comets.  They are published
       on behalf of Commission 20 of the International Astronomical Union by the
              Minor Planet Center, Smithsonian Astrophysical Observatory,
                              Cambridge, MA 02138, U.S.A.
    
                 Prepared using the Tamkin Foundation Computer Network
    
                                  MPC@CFA.HARVARD.EDU
              URL http://cfa-www.harvard.edu/iau/mpc.html  ISSN 1523-6714
    
                                       2000 YN29
    
    Observations:
         K00Y29N* C2000 12 28.15981 05 13 43.99 +25 45 06.0          19.8 V      691
         K00Y29N  C2000 12 28.18311 05 13 41.17 +25 45 07.6          19.9 V      691
         K00Y29N  C2000 12 28.20655 05 13 38.31 +25 45 08.4          19.8 V      691
         K00Y29N  C2000 12 29.19107 05 11 42.35 +25 46 04.6          19.8 V      691
         K00Y29N  C2000 12 29.19901 05 11 41.38 +25 46 05.1          20.2 V      691
         K00Y29N  C2000 12 29.20737 05 11 40.37 +25 46 05.5          19.8 V      691
         K00Y29N HC2000 12 30.35500 05 09 24.86 +25 47 01.9          19.6 V      691
         K00Y29N HC2000 12 30.35962 05 09 24.25 +25 47 02.5          19.4 V      691
         K00Y29N HC2000 12 30.36385 05 09 23.74 +25 47 02.8          19.8 V      691
         K00Y29N  C2000 12 31.16093 05 07 50.99 +25 47 36.0          19.6 V      691
         K00Y29N  C2000 12 31.16509 05 07 50.49 +25 47 36.3          19.7 V      691
         K00Y29N  C2000 12 31.16964 05 07 49.94 +25 47 36.5          19.9 V      691
         K00Y29N  C2000 12 31.92366 05 06 21.48 +25 48 03.6          18.8 R      046
         K00Y29N  C2000 12 31.92527 05 06 21.30 +25 48 03.8                      046
         K00Y29N  C2000 12 31.92661 05 06 21.22 +25 48 03.8                      046
         K00Y29N  C2000 12 31.92799 05 06 20.97 +25 48 03.2                      046
         K00Y29N  C2000 12 31.92939 05 06 20.86 +25 48 03.2          19.8 V      046
         K00Y29N  C2000 12 31.93058 05 06 20.66 +25 48 03.4                      557
         K00Y29N  C2000 12 31.93514 05 06 20.19 +25 48 03.6                      557
         K00Y29N  C2000 12 31.93742 05 06 19.89 +25 48 03.5                      557
         K00Y29N  C2000 12 31.93970 05 06 19.63 +25 48 04.3                      557
    
    Observer details:
    046 Klet.  Observers J. Ticha, M. Tichy.  0.57-m f/5.2 reflector + CCD.
    557 Ondrejov.  Observers P. Kusnirak, U. Babiakova.  0.65-m f/3.6 reflector
        + CCD.
    691 Steward Observatory, Kitt Peak.  Observer J. V. Scotti.  0.9-m Spacewatch
        telescope.
    
    Orbital elements:
    2000 YN29                                                            PHA 0.009
    Epoch 2000 Dec. 22.0 TT = JDT 2451900.5                 Williams
    M 324.46702              (2000.0)            P               Q
    n   0.24792681     Peri.  128.77669     -0.93760755     +0.33927616
    a   2.5094992      Node    71.17287     -0.33870148     -0.84181045
    e   0.6472427      Incl.    4.60869     -0.07857088     -0.41981764
    P   3.98           H   17.9           G   0.15
    From 21 observations 2000 Dec. 28-31.
    
    Ephemeris:
    2000 YN29                a,e,i = 2.51, 0.65, 5                   q = 0.8852
    Date    TT    R. A. (2000) Decl.     Delta      r     Elong.  Phase     V
    2001 01 01    05 06.21   +25 48.2    0.936    1.882   157.1    11.7    19.8
    2001 01 11    04 47.83   +25 49.7    0.909    1.794   142.8    19.3    19.9
    2001 01 21    04 33.06   +25 46.6    0.902    1.705   129.4    26.5    20.0
    2001 01 31    04 23.58   +25 46.3    0.907    1.615   117.1    32.9    20.1
    2001 02 10    04 20.02   +25 54.6    0.916    1.523   106.2    38.5    20.2
    2001 02 20    04 22.25   +26 13.9    0.925    1.431    96.7    43.3    20.2
    2001 03 02    04 29.97   +26 43.7    0.927    1.339    88.5    47.7    20.2
    2001 03 12    04 42.76   +27 21.2    0.919    1.249    81.4    51.9    20.1
    2001 03 22    05 00.26   +28 01.5    0.898    1.161    75.4    56.1    20.0
    2001 04 01    05 22.33   +28 38.6    0.863    1.080    70.5    60.7    19.9
    2001 04 11    05 48.81   +29 05.0    0.813    1.008    66.5    65.8    19.8
    2001 04 21    06 19.60   +29 11.0    0.749    0.948    63.5    71.5    19.7
    2001 05 01    06 54.78   +28 44.5    0.674    0.907    61.5    77.7    19.5
    2001 05 11    07 34.59   +27 29.4    0.591    0.887    60.8    83.7    19.4
    2001 05 21    08 20.02   +25 01.8    0.506    0.891    61.6    88.4    19.3
    2001 05 31    09 13.15   +20 43.0    0.428    0.918    64.9    90.1    19.1
    2001 06 10    10 16.53   +13 39.6    0.365    0.966    71.9    87.0    18.7
    2001 06 20    11 30.62   +03 27.8    0.332    1.031    83.2    78.2    18.3
    2001 06 30    12 49.78   -07 59.3    0.340    1.107    96.3    66.0    18.1
    2001 07 10    14 03.45   -17 15.3    0.391    1.190   106.8    54.8    18.2
    2001 07 20    15 04.81   -23 04.0    0.477    1.279   112.8    47.1    18.6
    2001 07 30    15 53.77   -26 16.4    0.587    1.370   114.8    42.3    19.1
    2001 08 09    16 33.14   -27 55.5    0.716    1.462   114.2    39.2    19.6
    2001 08 19    17 05.83   -28 41.3    0.860    1.554   111.9    37.2    20.0
    2001 08 29    17 34.06   -28 55.7    1.017    1.645   108.5    35.6    20.5
    2001 09 08    17 59.25   -28 50.2    1.185    1.735   104.4    34.2    20.9
    2001 09 18    18 22.33   -28 30.8    1.361    1.824    99.7    32.9    21.3
    2001 09 28    18 43.93   -28 01.0    1.545    1.910    94.8    31.5    21.6
    2001 10 08    19 04.41   -27 22.8    1.735    1.995    89.5    30.1    21.9
    
    Gareth V. Williams           (C) Copyright 2001 MPC           M.P.E.C. 2001-A11
    

    Read MPEC 2001-A10 Read MPEC 2001-A12


    MPEC number:

    Enter an MPEC number in one of the following forms:

    • 1997-B01 (the full form)
    • J97B01 (the packed version of the full form)
    • B01 (the abbreviated form)